Tracking 18980 objects as of 23-Feb-2018
HD Live streaming from Space Station
objects crossing your sky now

CZ-3C R/B

Track CZ-3C R/B now!
10-day predictions


NORAD ID: 36591
Int'l Code: 2010-024B
Perigee: 217.2 km
Apogee: 17,161.6 km
Inclination: 20.7 °
Period: 306.6 minutes
Semi major axis: 15060 km
RCS: 15.0139 m2 (large)
Launch date: June 2, 2010
Source: People's Republic of China (PRC)
Launch site: Xichang Space Center, China (XSC)

Note: This is a ROCKET BODY
aabbcc
Your satellite tracking list
Your tracking list is empty




NASA's NSSDC Master Catalog

Two Line Element Set (TLE):
1 36591U 10024B   18053.72587212 +.00016905 +00000-0 +57884-3 0  9998
2 36591 020.7076 010.7201 5625459 031.7263 352.3327 04.69730352098402
Source of the keplerian elements: AFSPC